BSAT-3A

Last updated on Sun May 04 2025 00:02:40 GMT+0000 (Coordinated Universal Time)

1 32019U 07036B 25123.58064918 -.00000075 00000+0 00000+0 0 9996 2 32019 0.5967 102.9650 0001497 64.1262 0.0122 0.99138247 46412
UTC large
Height (km)
Speed (km/s)
/
Latitude / Longitude
Inclination (degrees)
Orbital Period (minutes)
Azimuth
Elevation
Range (km)
Doppler Factor

Next 0 passes for location: London (51.5072 / 0.1276)

Sorry there are no passes over London.
BSAT-3A